Miscellaneous Local Product
Issued by NWS North Platte, NE

Home | Current Version | Previous Version | Text Only | Print | Product List | Glossary On
Versions: 1 2 3 4 5 6 7 8 9 10 11 12 13 14 15 16 17 18 19 20 21 22 23 24 25 26 27 28 29 30 31 32 33 34 35 36 37 38 39 40 41 42 43 44 45 46 47 48 49 50
000
AXUS43 KLBF 020810
MISLBF


WESTERN AND NORTH CENTRAL NEBRASKA HOURLY WEATHER ROUNDUP
NATIONAL WEATHER SERVICE NORTH PLATTE NE
300 AM CDT MON MAY 02 2016

NOTE: "FAIR" INDICATES FEW OR NO CLOUDS BELOW 12,000 FEET WITH NO
SIGNIFICANT WEATHER AND/OR OBSTRUCTIONS TO VISIBILITY.

NOTE: STATIONS NOT REPORTING VARIABLES SUCH AS SKY/WEATHER OR
PRESSURE ARE PROVIDED BY RAWS AND APRS NETWORKS AND ARE NOT UNDER
NATIONAL WEATHER SERVICE QUALITY CONTROL.

...OBSERVATIONS IN AND NEAR THE EASTERN PANHANDLE OF NEBRASKA...

CITY           SKY/WX    TMP DP  RH WIND       PRES   REMARKS
PINE RIDGE     CLEAR     30  27  88 W5        30.22F WCI  25
CHADRON        CLEAR     32  29  88 SW7       30.23F WCI  26
ALLIANCE       CLEAR     24  22  91 W10       30.22F WCI  14
SIDNEY         CLEAR     31  25  78 W10       30.24F WCI  22
CRESCENT LAKE    N/A     32  28  86 NW3         N/A
BIG SPRINGS      N/A     34  31  90 SW3         N/A
$$

...OBSERVATIONS IN NORTHERN NEBRASKA AND FAR SOUTHERN SOUTH DAKOTA...

CITY           SKY/WX    TMP DP  RH WIND       PRES   REMARKS
WINNER         FAIR      39  31  72 SW7       30.19F WCI  34
VALENTINE      CLEAR     29  27  92 SW6       30.21F WCI  23
THEDFORD         N/A     33  32  96 W3        30.22F
AINSWORTH      CLEAR     36  32  87 W7        30.20F WCI  30
O`NEILL        CLEAR     39  35  86 W5        30.18F
ORD            CLEAR     34  32  92 CALM      30.19F
BROKEN BOW     CLEAR     31  30  96 CALM      30.20F
VALENTINE NWR    N/A     34  30  86 CALM        N/A
BUTTE            N/A     41  34  76 W3          N/A
HALSEY           N/A     34  30  85 W3          N/A
CHAMBERS         N/A     37  35  91 W3          N/A
EWING            N/A     37  35  93 CALM        N/A
$$

...OBSERVATIONS IN SOUTHWEST NEBRASKA AND FAR NORTHEAST COLORADO...

CITY           SKY/WX    TMP DP  RH WIND       PRES   REMARKS
HOLYOKE        FAIR      34  30  86 W6        30.25F WCI  29
IMPERIAL       CLEAR     36  29  75 NW9       30.24F WCI  29
OGALLALA       CLEAR     33  29  86 W5        30.23F WCI  28
NORTH PLATTE   CLEAR     29  29 100 W3        30.23F
MCCOOK         CLOUDY    38  34  85 W6        30.23F WCI  33
LEXINGTON      CLEAR     34  32  92 W7        30.22F WCI  28
PAXTON           N/A     35  32  89 CALM        N/A
STAPLETON        N/A     33  30  89 CALM        N/A
GOTHENBURG       N/A     37  32  83 W3          N/A
CALLAWAY         N/A     37  32  83 CALM        N/A
$$

...OBSERVATIONS IN CENTRAL LINCOLN COUNTY AREA...

CITY           SKY/WX    TMP DP  RH WIND       PRES   REMARKS
N.P. AIRPORT   CLEAR     29  29 100 W3        30.23F
N.P. DOWNTOWN    N/A     34  31  90 CALM        N/A
N.P. HILLCREST   N/A     35  32  90 W3          N/A
$$

...SOME OBSERVATIONS FROM AROUND THE REGION...

CITY           SKY/WX    TMP DP  RH WIND       PRES   REMARKS
DENVER         PTCLDY    32  26  78 SW6       30.27F WCI  26
LARAMIE        CLOUDY    19  16  88 S7        30.26F WCI  10
CHEYENNE       CLEAR     28  20  71 W12       30.25F WCI  18
SCOTTSBLUFF    CLEAR     34  28  79 N8        30.25S WCI  27
RAPID CITY     CLEAR     35  28  75 W7        30.20F WCI  29
BISMARCK       PTCLDY    43  34  70 CALM      30.11F
PIERRE         CLEAR     40  34  79 W8        30.16F WCI  34
SIOUX FALLS    CLEAR     36  33  89 CALM      30.15F
OMAHA          CLOUDY    48  46  93 N5        30.14F
GRAND ISLAND   CLOUDY    45  41  86 W5        30.19F
KANSAS CITY    CLOUDY    48  44  86 W7        30.13S
WICHITA        CLOUDY    48  42  80 NW9       30.16F
OKLAHOMA CITY  MOCLDY    50  43  77 N14       30.14F
DALLAS         CLOUDY    60  51  72 N18       30.05F
AMARILLO       CLOUDY    41  38  89 NW8       30.24F
DODGE CITY     PTCLDY    37  35  92 NW8       30.22F WCI  31
HAYS           CLOUDY    43  34  70 NW7       30.21F
GOODLAND       CLEAR     31  27  85 W9        30.24F WCI  23
$$




USA.gov is the U.S. government's official web portal to all federal, state and local government web resources and services.